Year,Month,Day,Hour,Minute,Value (Times are PST for temperature in C)
2015,06,29,00,00,18.00
2015,06,29,00,01,18.10
2015,06,29,00,02,18.30
2015,06,29,00,03,18.40
2015,06,29,00,04,18.60
2015,06,29,00,05,18.70
2015,06,29,00,06,18.70
2015,06,29,00,07,18.80
2015,06,29,00,08,18.80
2015,06,29,00,09,18.80
2015,06,29,00,10,18.80
2015,06,29,00,11,18.70
2015,06,29,00,12,18.50
2015,06,29,00,13,18.40
2015,06,29,00,14,18.20
2015,06,29,00,15,18.20
2015,06,29,00,16,18.10
2015,06,29,00,17,18.00
2015,06,29,00,18,17.90
2015,06,29,00,19,17.90
2015,06,29,00,20,18.00
2015,06,29,00,21,18.10
2015,06,29,00,22,18.20
2015,06,29,00,23,18.30
2015,06,29,00,24,18.30
2015,06,29,00,25,18.30
2015,06,29,00,26,18.40
2015,06,29,00,27,18.40
2015,06,29,00,28,18.40
2015,06,29,00,29,18.30
2015,06,29,00,30,18.20
2015,06,29,00,31,18.00
2015,06,29,00,32,17.90
2015,06,29,00,33,17.90
2015,06,29,00,34,17.90
2015,06,29,00,35,17.90
2015,06,29,00,36,17.90
2015,06,29,00,37,17.90
2015,06,29,00,38,18.10
2015,06,29,00,39,18.20
2015,06,29,00,40,18.20
2015,06,29,00,41,18.20
2015,06,29,00,42,18.40
2015,06,29,00,43,18.40
2015,06,29,00,44,18.50
2015,06,29,00,45,18.50
2015,06,29,00,46,18.60
2015,06,29,00,47,18.60
2015,06,29,00,48,18.60
2015,06,29,00,49,18.60
2015,06,29,00,50,18.70
2015,06,29,00,51,18.70
2015,06,29,00,52,18.80
2015,06,29,00,53,18.80
2015,06,29,00,54,18.80
2015,06,29,00,55,18.80
2015,06,29,00,56,18.80
2015,06,29,00,57,18.70
2015,06,29,00,58,18.70
2015,06,29,00,59,18.70
2015,06,29,01,00,18.70
2015,06,29,01,01,18.70
2015,06,29,01,02,18.70
2015,06,29,01,03,18.60
2015,06,29,01,04,18.50
2015,06,29,01,05,18.50
2015,06,29,01,06,18.40
2015,06,29,01,07,18.40
2015,06,29,01,08,18.40
2015,06,29,01,09,18.30
2015,06,29,01,10,18.30
2015,06,29,01,11,18.30
2015,06,29,01,12,18.30
2015,06,29,01,13,18.30
2015,06,29,01,14,18.30
2015,06,29,01,15,18.30
2015,06,29,01,16,18.20
2015,06,29,01,17,18.20
2015,06,29,01,18,18.20
2015,06,29,01,19,18.10
2015,06,29,01,20,18.10
2015,06,29,01,21,18.20
2015,06,29,01,22,18.20
2015,06,29,01,23,18.20
2015,06,29,01,24,18.20
2015,06,29,01,25,18.20
2015,06,29,01,26,18.30
2015,06,29,01,27,18.30
2015,06,29,01,28,18.30
2015,06,29,01,29,18.30
2015,06,29,01,30,18.30
2015,06,29,01,31,18.20
2015,06,29,01,32,18.20
2015,06,29,01,33,18.20
2015,06,29,01,34,18.20
2015,06,29,01,35,18.20
2015,06,29,01,36,18.20
2015,06,29,01,37,18.10
2015,06,29,01,38,17.90
2015,06,29,01,39,17.60
2015,06,29,01,40,17.40
2015,06,29,01,41,17.20
2015,06,29,01,42,17.00
2015,06,29,01,43,16.90
2015,06,29,01,44,16.80
2015,06,29,01,45,16.70
2015,06,29,01,46,16.70
2015,06,29,01,47,16.70
2015,06,29,01,48,16.70
2015,06,29,01,49,16.70
2015,06,29,01,50,16.80
2015,06,29,01,51,16.80
2015,06,29,01,52,16.80
2015,06,29,01,53,16.80
2015,06,29,01,54,16.90
2015,06,29,01,55,16.90
2015,06,29,01,56,16.90
2015,06,29,01,57,17.00
2015,06,29,01,58,17.00
2015,06,29,01,59,17.00
2015,06,29,02,00,17.00
2015,06,29,02,01,17.00
2015,06,29,02,02,16.90
2015,06,29,02,03,16.90
2015,06,29,02,04,16.90
2015,06,29,02,05,16.80
2015,06,29,02,06,16.70
2015,06,29,02,07,16.70
2015,06,29,02,08,16.60
2015,06,29,02,09,16.60
2015,06,29,02,10,16.40
2015,06,29,02,11,16.40
2015,06,29,02,12,16.40
2015,06,29,02,13,16.40
2015,06,29,02,14,16.40
2015,06,29,02,15,16.40
2015,06,29,02,16,16.30
2015,06,29,02,17,16.30
2015,06,29,02,18,16.30
2015,06,29,02,19,16.30
2015,06,29,02,20,16.30
2015,06,29,02,21,16.30
2015,06,29,02,22,16.30
2015,06,29,02,23,16.40
2015,06,29,02,24,16.40
2015,06,29,02,25,16.40
2015,06,29,02,26,16.40
2015,06,29,02,27,16.40
2015,06,29,02,28,16.40
2015,06,29,02,29,16.40
2015,06,29,02,30,16.40
2015,06,29,02,31,16.40
2015,06,29,02,32,16.40
2015,06,29,02,33,16.60
2015,06,29,02,34,16.60
2015,06,29,02,35,16.60
2015,06,29,02,36,16.70
2015,06,29,02,37,16.70
2015,06,29,02,38,16.70
2015,06,29,02,39,16.70
2015,06,29,02,40,16.70
2015,06,29,02,41,16.70
2015,06,29,02,42,16.80
2015,06,29,02,43,16.80
2015,06,29,02,44,16.80
2015,06,29,02,45,16.90
2015,06,29,02,46,16.90
2015,06,29,02,47,16.90
2015,06,29,02,48,16.90
2015,06,29,02,49,16.90
2015,06,29,02,50,17.00
2015,06,29,02,51,17.00
2015,06,29,02,52,17.00
2015,06,29,02,53,17.00
2015,06,29,02,54,17.00
2015,06,29,02,55,17.00
2015,06,29,02,56,17.10
2015,06,29,02,57,17.10
2015,06,29,02,58,17.10
2015,06,29,02,59,17.10
2015,06,29,03,00,17.10
2015,06,29,03,01,17.10
2015,06,29,03,02,17.10
2015,06,29,03,03,17.00
2015,06,29,03,04,17.00
2015,06,29,03,05,17.10
2015,06,29,03,06,17.10
2015,06,29,03,07,17.20
2015,06,29,03,08,17.20
2015,06,29,03,09,17.20
2015,06,29,03,10,17.20
2015,06,29,03,11,17.30
2015,06,29,03,12,17.30
2015,06,29,03,13,17.30
2015,06,29,03,14,17.30
2015,06,29,03,15,17.30
2015,06,29,03,16,17.30
2015,06,29,03,17,17.30
2015,06,29,03,18,17.30
2015,06,29,03,19,17.30
2015,06,29,03,20,17.30
2015,06,29,03,21,17.40
2015,06,29,03,22,17.40
2015,06,29,03,23,17.40
2015,06,29,03,24,17.40
2015,06,29,03,25,17.40
2015,06,29,03,26,17.40
2015,06,29,03,27,17.40
2015,06,29,03,28,17.40
2015,06,29,03,29,17.50
2015,06,29,03,30,17.50
2015,06,29,03,31,17.50
2015,06,29,03,32,17.60
2015,06,29,03,33,17.60
2015,06,29,03,34,17.60
2015,06,29,03,35,17.60
2015,06,29,03,36,17.60
2015,06,29,03,37,17.60
2015,06,29,03,38,17.60
2015,06,29,03,39,17.60
2015,06,29,03,40,17.70
2015,06,29,03,41,17.70
2015,06,29,03,42,17.70
2015,06,29,03,43,17.70
2015,06,29,03,44,17.70
2015,06,29,03,45,17.70
2015,06,29,03,46,17.70
2015,06,29,03,47,17.70
2015,06,29,03,48,17.70
2015,06,29,03,49,17.70
2015,06,29,03,50,17.70
2015,06,29,03,51,17.70
2015,06,29,03,52,17.70
2015,06,29,03,53,17.60
2015,06,29,03,54,17.60
2015,06,29,03,55,17.50
2015,06,29,03,56,17.50
2015,06,29,03,57,17.40
2015,06,29,03,58,17.40
2015,06,29,03,59,17.40
2015,06,29,04,00,17.40
2015,06,29,04,01,17.40
2015,06,29,04,02,17.30
2015,06,29,04,03,17.30
2015,06,29,04,04,17.30
2015,06,29,04,05,17.30
2015,06,29,04,06,17.30
2015,06,29,04,07,17.30
2015,06,29,04,08,17.30
2015,06,29,04,09,17.30
2015,06,29,04,10,17.40
2015,06,29,04,11,17.40
2015,06,29,04,12,17.50
2015,06,29,04,13,17.50
2015,06,29,04,14,17.50
2015,06,29,04,15,17.50
2015,06,29,04,16,17.40
2015,06,29,04,17,17.30
2015,06,29,04,18,17.20
2015,06,29,04,19,17.10
2015,06,29,04,20,17.00
2015,06,29,04,21,17.00
2015,06,29,04,22,16.90
2015,06,29,04,23,16.80
2015,06,29,04,24,16.60
2015,06,29,04,25,16.50
2015,06,29,04,26,16.40
2015,06,29,04,27,16.30
2015,06,29,04,28,16.30
2015,06,29,04,29,16.20
2015,06,29,04,30,16.20
2015,06,29,04,31,16.20
2015,06,29,04,32,16.10
2015,06,29,04,33,16.10
2015,06,29,04,34,16.10
2015,06,29,04,35,16.10
2015,06,29,04,36,16.10
2015,06,29,04,37,16.10
2015,06,29,04,38,16.10
2015,06,29,04,39,16.10
2015,06,29,04,40,16.10
2015,06,29,04,41,16.10
2015,06,29,04,42,16.10
2015,06,29,04,43,16.20
2015,06,29,04,44,16.20
2015,06,29,04,45,16.10
2015,06,29,04,46,16.10
2015,06,29,04,47,16.10
2015,06,29,04,48,16.10
2015,06,29,04,49,16.10
2015,06,29,04,50,16.20
2015,06,29,04,51,16.20
2015,06,29,04,52,16.30
2015,06,29,04,53,16.30
2015,06,29,04,54,16.40
2015,06,29,04,55,16.40
2015,06,29,04,56,16.40
2015,06,29,04,57,16.40
2015,06,29,04,58,16.40
2015,06,29,04,59,16.40
2015,06,29,05,00,16.40
2015,06,29,05,01,16.40
2015,06,29,05,02,16.40
2015,06,29,05,03,16.30
2015,06,29,05,04,16.30
2015,06,29,05,05,16.30
2015,06,29,05,06,16.30
2015,06,29,05,07,16.30
2015,06,29,05,08,16.30
2015,06,29,05,09,16.30
2015,06,29,05,10,16.30
2015,06,29,05,11,16.30
2015,06,29,05,12,16.30
2015,06,29,05,13,16.30
2015,06,29,05,14,16.40
2015,06,29,05,15,16.40
2015,06,29,05,16,16.40
2015,06,29,05,17,16.40
2015,06,29,05,18,16.40
2015,06,29,05,19,16.50
2015,06,29,05,20,16.50
2015,06,29,05,21,16.60
2015,06,29,05,22,16.60
2015,06,29,05,23,16.50
2015,06,29,05,24,16.40
2015,06,29,05,25,16.40
2015,06,29,05,26,16.40
2015,06,29,05,27,16.40
2015,06,29,05,28,16.50
2015,06,29,05,29,16.50
2015,06,29,05,30,16.60
2015,06,29,05,31,16.60
2015,06,29,05,32,16.60
2015,06,29,05,33,16.60
2015,06,29,05,34,16.60
2015,06,29,05,35,16.70
2015,06,29,05,36,16.70
2015,06,29,05,37,16.70
2015,06,29,05,38,16.70
2015,06,29,05,39,16.70
2015,06,29,05,40,16.70
2015,06,29,05,41,16.70
2015,06,29,05,42,16.70
2015,06,29,05,43,16.70
2015,06,29,05,44,16.70
2015,06,29,05,45,16.70
2015,06,29,05,46,16.70
2015,06,29,05,47,16.80
2015,06,29,05,48,16.80
2015,06,29,05,49,16.80
2015,06,29,05,50,16.80
2015,06,29,05,51,16.80
2015,06,29,05,52,16.80
2015,06,29,05,53,16.80
2015,06,29,05,54,16.80
2015,06,29,05,55,16.80
2015,06,29,05,56,16.80
2015,06,29,05,57,16.80
2015,06,29,05,58,16.80
2015,06,29,05,59,16.80
2015,06,29,06,00,16.70
2015,06,29,06,01,16.70
2015,06,29,06,02,16.70
2015,06,29,06,03,16.70
2015,06,29,06,04,16.70
2015,06,29,06,05,16.60
2015,06,29,06,06,16.50
2015,06,29,06,07,16.40
2015,06,29,06,08,16.40
2015,06,29,06,09,16.40
2015,06,29,06,10,16.40
2015,06,29,06,11,16.40
2015,06,29,06,12,16.40
2015,06,29,06,13,16.40
2015,06,29,06,14,16.30
2015,06,29,06,15,16.30
2015,06,29,06,16,16.30
2015,06,29,06,17,16.30
2015,06,29,06,18,16.40
2015,06,29,06,19,16.40
2015,06,29,06,20,16.40
2015,06,29,06,21,16.40
2015,06,29,06,22,16.40
2015,06,29,06,23,16.40
2015,06,29,06,24,16.40
2015,06,29,06,25,16.40
2015,06,29,06,26,16.40
2015,06,29,06,27,16.40
2015,06,29,06,28,16.40
2015,06,29,06,29,16.40
2015,06,29,06,30,16.40
2015,06,29,06,31,16.40
2015,06,29,06,32,16.40
2015,06,29,06,33,16.50
2015,06,29,06,34,16.50
2015,06,29,06,35,16.60
2015,06,29,06,36,16.60
2015,06,29,06,37,16.60
2015,06,29,06,38,16.60
2015,06,29,06,39,16.60
2015,06,29,06,40,16.70
2015,06,29,06,41,16.70
2015,06,29,06,42,16.70
2015,06,29,06,43,16.70
2015,06,29,06,44,16.70
2015,06,29,06,45,16.80
2015,06,29,06,46,16.80
2015,06,29,06,47,16.90
2015,06,29,06,48,16.90
2015,06,29,06,49,17.00
2015,06,29,06,50,17.00
2015,06,29,06,51,17.10
2015,06,29,06,52,17.20
2015,06,29,06,53,17.20
2015,06,29,06,54,17.30
2015,06,29,06,55,17.30
2015,06,29,06,56,17.40
2015,06,29,06,57,17.50
2015,06,29,06,58,17.50
2015,06,29,06,59,17.50
2015,06,29,07,00,17.50
2015,06,29,07,01,17.50
2015,06,29,07,02,17.50
2015,06,29,07,03,17.60
2015,06,29,07,04,17.70
2015,06,29,07,05,17.70
2015,06,29,07,06,17.80
2015,06,29,07,07,17.90
2015,06,29,07,08,17.90
2015,06,29,07,09,18.10
2015,06,29,07,10,18.10
2015,06,29,07,11,18.20
2015,06,29,07,12,18.20
2015,06,29,07,13,18.30
2015,06,29,07,14,18.40
2015,06,29,07,15,18.50
2015,06,29,07,16,18.50
2015,06,29,07,17,18.60
2015,06,29,07,18,18.60
2015,06,29,07,19,18.70
2015,06,29,07,20,18.80
2015,06,29,07,21,18.90
2015,06,29,07,22,18.90
2015,06,29,07,23,19.00
2015,06,29,07,24,19.10
2015,06,29,07,25,19.20
2015,06,29,07,26,19.30
2015,06,29,07,27,19.40
2015,06,29,07,28,19.50
2015,06,29,07,29,19.60
2015,06,29,07,30,19.70
2015,06,29,07,31,19.80
2015,06,29,07,32,19.90
2015,06,29,07,33,19.90
2015,06,29,07,34,20.10
2015,06,29,07,35,20.20
2015,06,29,07,36,20.30
2015,06,29,07,37,20.40
2015,06,29,07,38,20.40
2015,06,29,07,39,20.40
2015,06,29,07,40,20.50
2015,06,29,07,41,20.50
2015,06,29,07,42,20.40
2015,06,29,07,43,20.30
2015,06,29,07,44,20.30
2015,06,29,07,45,20.30
2015,06,29,07,46,20.30
2015,06,29,07,47,20.30
2015,06,29,07,48,20.20
2015,06,29,07,49,20.20
2015,06,29,07,50,20.30
2015,06,29,07,51,20.40
2015,06,29,07,52,20.60
2015,06,29,07,53,20.70
2015,06,29,07,54,20.80
2015,06,29,07,55,20.90
2015,06,29,07,56,20.90
2015,06,29,07,57,20.80
2015,06,29,07,58,20.70
2015,06,29,07,59,20.30
2015,06,29,08,00,20.00
2015,06,29,08,01,19.90
2015,06,29,08,02,19.80
2015,06,29,08,03,19.80
2015,06,29,08,04,19.80
2015,06,29,08,05,19.70
2015,06,29,08,06,19.70
2015,06,29,08,07,19.50
2015,06,29,08,08,19.40
2015,06,29,08,09,19.20
2015,06,29,08,10,19.10
2015,06,29,08,11,19.10
2015,06,29,08,12,19.10
2015,06,29,08,13,19.00
2015,06,29,08,14,18.80
2015,06,29,08,15,18.60
2015,06,29,08,16,18.40
2015,06,29,08,17,18.20
2015,06,29,08,18,18.10
2015,06,29,08,19,18.00
2015,06,29,08,20,17.90
2015,06,29,08,21,17.90
2015,06,29,08,22,17.90
2015,06,29,08,23,17.90
2015,06,29,08,24,18.00
2015,06,29,08,25,18.10
2015,06,29,08,26,18.20
2015,06,29,08,27,18.20
2015,06,29,08,28,18.40
2015,06,29,08,29,18.50
2015,06,29,08,30,18.60
2015,06,29,08,31,18.80
2015,06,29,08,32,18.90
2015,06,29,08,33,19.10
2015,06,29,08,34,19.30
2015,06,29,08,35,19.50
2015,06,29,08,36,19.60
2015,06,29,08,37,19.80
2015,06,29,08,38,20.00
2015,06,29,08,39,20.20
2015,06,29,08,40,20.40
2015,06,29,08,41,20.60
2015,06,29,08,42,20.80
2015,06,29,08,43,21.00
2015,06,29,08,44,21.00
2015,06,29,08,45,21.10
2015,06,29,08,46,21.20
2015,06,29,08,47,21.30
2015,06,29,08,48,21.40
2015,06,29,08,49,21.50
2015,06,29,08,50,21.60
2015,06,29,08,51,21.60
2015,06,29,08,52,21.60
2015,06,29,08,53,21.70
2015,06,29,08,54,21.70
2015,06,29,08,55,21.70
2015,06,29,08,56,21.70
2015,06,29,08,57,21.70
2015,06,29,08,58,21.70
2015,06,29,08,59,21.70
2015,06,29,09,00,21.70
2015,06,29,09,01,21.70
2015,06,29,09,02,21.80
2015,06,29,09,03,21.90
2015,06,29,09,04,21.90
2015,06,29,09,05,22.00
2015,06,29,09,06,22.00
2015,06,29,09,07,22.00
2015,06,29,09,08,22.00
2015,06,29,09,09,21.70
2015,06,29,09,10,21.60
2015,06,29,09,11,21.40
2015,06,29,09,12,21.30
2015,06,29,09,13,21.20
2015,06,29,09,14,21.20
2015,06,29,09,15,21.20
2015,06,29,09,16,21.30
2015,06,29,09,17,21.30
2015,06,29,09,18,21.30
2015,06,29,09,19,21.30
2015,06,29,09,20,21.30
2015,06,29,09,21,21.30
2015,06,29,09,22,21.40
2015,06,29,09,23,21.60
2015,06,29,09,24,21.60
2015,06,29,09,25,21.60
2015,06,29,09,26,21.60
2015,06,29,09,27,21.70
2015,06,29,09,28,21.70
2015,06,29,09,29,21.80
2015,06,29,09,30,21.90
2015,06,29,09,31,22.00
2015,06,29,09,32,21.80
2015,06,29,09,33,21.60
2015,06,29,09,34,21.50
2015,06,29,09,35,21.40
2015,06,29,09,36,21.30
2015,06,29,09,37,21.30
2015,06,29,09,38,21.30
2015,06,29,09,39,21.30
2015,06,29,09,40,21.30
2015,06,29,09,41,21.20
2015,06,29,09,42,21.10
2015,06,29,09,43,20.90
2015,06,29,09,44,20.80
2015,06,29,09,45,20.70
2015,06,29,09,46,20.70
2015,06,29,09,47,20.60
2015,06,29,09,48,20.60
2015,06,29,09,49,20.80
2015,06,29,09,50,20.90
2015,06,29,09,51,21.00
2015,06,29,09,52,21.20
2015,06,29,09,53,21.30
2015,06,29,09,54,21.40
2015,06,29,09,55,21.60
2015,06,29,09,56,21.80
2015,06,29,09,57,22.00
2015,06,29,09,58,22.20
2015,06,29,09,59,22.40
2015,06,29,10,00,22.60
2015,06,29,10,01,22.60
2015,06,29,10,02,22.70
2015,06,29,10,03,22.90
2015,06,29,10,04,22.90
2015,06,29,10,05,22.90
2015,06,29,10,06,22.90
2015,06,29,10,07,22.90
2015,06,29,10,08,23.00
2015,06,29,10,09,23.00
2015,06,29,10,10,23.10
2015,06,29,10,11,23.10
2015,06,29,10,12,23.20
2015,06,29,10,13,23.20
2015,06,29,10,14,23.30
2015,06,29,10,15,23.30
2015,06,29,10,16,23.30
2015,06,29,10,17,23.30
2015,06,29,10,18,23.40
2015,06,29,10,19,23.40
2015,06,29,10,20,23.50
2015,06,29,10,21,23.60
2015,06,29,10,22,23.60
2015,06,29,10,23,23.60
2015,06,29,10,24,23.60
2015,06,29,10,25,23.60
2015,06,29,10,26,23.40
2015,06,29,10,27,23.30
2015,06,29,10,28,23.20
2015,06,29,10,29,23.10
2015,06,29,10,30,23.00
2015,06,29,10,31,22.90
2015,06,29,10,32,22.90
2015,06,29,10,33,22.90
2015,06,29,10,34,22.90
2015,06,29,10,35,22.90
2015,06,29,10,36,22.80
2015,06,29,10,37,22.80
2015,06,29,10,38,22.90
2015,06,29,10,39,22.80
2015,06,29,10,40,22.70
2015,06,29,10,41,22.70
2015,06,29,10,42,22.80
2015,06,29,10,43,22.80
2015,06,29,10,44,22.90
2015,06,29,10,45,22.90
2015,06,29,10,46,22.90
2015,06,29,10,47,23.00
2015,06,29,10,48,23.10
2015,06,29,10,49,23.20
2015,06,29,10,50,23.30
2015,06,29,10,51,23.20
2015,06,29,10,52,23.10
2015,06,29,10,53,23.10
2015,06,29,10,54,23.10
2015,06,29,10,55,23.00
2015,06,29,10,56,23.00
2015,06,29,10,57,22.90
2015,06,29,10,58,22.90
2015,06,29,10,59,22.70
2015,06,29,11,00,22.60
2015,06,29,11,01,22.50
2015,06,29,11,02,22.50
2015,06,29,11,03,22.50
2015,06,29,11,04,22.50
2015,06,29,11,05,22.60
2015,06,29,11,06,22.70
2015,06,29,11,07,22.80
2015,06,29,11,08,22.90
2015,06,29,11,09,23.00
2015,06,29,11,10,23.10
2015,06,29,11,11,23.20
2015,06,29,11,12,23.30
2015,06,29,11,13,23.30
2015,06,29,11,14,23.40
2015,06,29,11,15,23.50
2015,06,29,11,16,23.60
2015,06,29,11,17,23.70
2015,06,29,11,18,23.70
2015,06,29,11,19,23.70
2015,06,29,11,20,23.70
2015,06,29,11,21,23.70
2015,06,29,11,22,23.70
2015,06,29,11,23,23.70
2015,06,29,11,24,23.70
2015,06,29,11,25,23.70
2015,06,29,11,26,23.70
2015,06,29,11,27,23.70
2015,06,29,11,28,23.80
2015,06,29,11,29,23.80
2015,06,29,11,30,23.80
2015,06,29,11,31,23.80
2015,06,29,11,32,23.80
2015,06,29,11,33,23.90
2015,06,29,11,34,24.00
2015,06,29,11,35,24.10
2015,06,29,11,36,24.10
2015,06,29,11,37,24.10
2015,06,29,11,38,24.10
2015,06,29,11,39,24.20
2015,06,29,11,40,24.20
2015,06,29,11,41,24.20
2015,06,29,11,42,24.30
2015,06,29,11,43,24.30
2015,06,29,11,44,24.30
2015,06,29,11,45,24.30
2015,06,29,11,46,24.30
2015,06,29,11,47,24.40
2015,06,29,11,48,24.40
2015,06,29,11,49,24.40
2015,06,29,11,50,24.40
2015,06,29,11,51,24.40
2015,06,29,11,52,24.30
2015,06,29,11,53,24.20
2015,06,29,11,54,24.10
2015,06,29,11,55,24.10
2015,06,29,11,56,24.10
2015,06,29,11,57,24.20
2015,06,29,11,58,24.20
2015,06,29,11,59,24.20
2015,06,29,12,00,24.30
2015,06,29,12,01,24.30
2015,06,29,12,02,24.40
2015,06,29,12,03,24.50
2015,06,29,12,04,24.50
2015,06,29,12,05,24.60
2015,06,29,12,06,24.60
2015,06,29,12,07,24.60
2015,06,29,12,08,24.70
2015,06,29,12,09,24.60
2015,06,29,12,10,24.60
2015,06,29,12,11,24.60
2015,06,29,12,12,24.50
2015,06,29,12,13,24.50
2015,06,29,12,14,24.50
2015,06,29,12,15,24.50
2015,06,29,12,16,24.40
2015,06,29,12,17,24.30
2015,06,29,12,18,24.30
2015,06,29,12,19,24.30
2015,06,29,12,20,24.30
2015,06,29,12,21,24.30
2015,06,29,12,22,24.20
2015,06,29,12,23,24.20
2015,06,29,12,24,24.20
2015,06,29,12,25,24.20
2015,06,29,12,26,24.10
2015,06,29,12,27,24.10
2015,06,29,12,28,24.10
2015,06,29,12,29,24.10
2015,06,29,12,30,24.10
2015,06,29,12,31,24.10
2015,06,29,12,32,24.10
2015,06,29,12,33,24.10
2015,06,29,12,34,24.10
2015,06,29,12,35,24.10
2015,06,29,12,36,24.10
2015,06,29,12,37,24.10
2015,06,29,12,38,24.00
2015,06,29,12,39,23.90
2015,06,29,12,40,23.90
2015,06,29,12,41,23.90
2015,06,29,12,42,23.90
2015,06,29,12,43,24.00
2015,06,29,12,44,24.10
2015,06,29,12,45,24.10
2015,06,29,12,46,24.10
2015,06,29,12,47,24.10
2015,06,29,12,48,24.10
2015,06,29,12,49,24.10
2015,06,29,12,50,24.20
2015,06,29,12,51,24.20
2015,06,29,12,52,24.30
2015,06,29,12,53,24.30
2015,06,29,12,54,24.20
2015,06,29,12,55,24.20
2015,06,29,12,56,24.10
2015,06,29,12,57,24.10
2015,06,29,12,58,24.10
2015,06,29,12,59,24.10
2015,06,29,13,00,24.10
2015,06,29,13,01,24.00
2015,06,29,13,02,23.90
2015,06,29,13,03,23.90
2015,06,29,13,04,23.80
2015,06,29,13,05,23.70
2015,06,29,13,06,23.70
2015,06,29,13,07,23.70
2015,06,29,13,08,23.70
2015,06,29,13,09,23.80
2015,06,29,13,10,23.90
2015,06,29,13,11,23.90
2015,06,29,13,12,23.90
2015,06,29,13,13,23.90
2015,06,29,13,14,23.80
2015,06,29,13,15,23.80
2015,06,29,13,16,23.70
2015,06,29,13,17,23.70
2015,06,29,13,18,23.70
2015,06,29,13,19,23.70
2015,06,29,13,20,23.70
2015,06,29,13,21,23.70
2015,06,29,13,22,23.70
2015,06,29,13,23,23.60
2015,06,29,13,24,23.60
2015,06,29,13,25,23.70
2015,06,29,13,26,23.70
2015,06,29,13,27,23.70
2015,06,29,13,28,23.70
2015,06,29,13,29,23.70
2015,06,29,13,30,23.70
2015,06,29,13,31,23.60
2015,06,29,13,32,23.50
2015,06,29,13,33,23.50
2015,06,29,13,34,23.60
2015,06,29,13,35,23.60
2015,06,29,13,36,23.60
2015,06,29,13,37,23.60
2015,06,29,13,38,23.40
2015,06,29,13,39,23.50
2015,06,29,13,40,23.40
2015,06,29,13,41,23.50
2015,06,29,13,42,23.60
2015,06,29,13,43,23.60
2015,06,29,13,44,23.70
2015,06,29,13,45,23.70
2015,06,29,13,46,23.90
2015,06,29,13,47,24.00
2015,06,29,13,48,24.10
2015,06,29,13,49,24.10
2015,06,29,13,50,24.10
2015,06,29,13,51,24.10
2015,06,29,13,52,24.00
2015,06,29,13,53,23.90
2015,06,29,13,54,24.00
2015,06,29,13,55,24.10
2015,06,29,13,56,24.20
2015,06,29,13,57,24.30
2015,06,29,13,58,24.40
2015,06,29,13,59,24.50
2015,06,29,14,00,24.40
2015,06,29,14,01,24.50
2015,06,29,14,02,24.50
2015,06,29,14,03,24.50
2015,06,29,14,04,24.60
2015,06,29,14,05,24.80
2015,06,29,14,06,24.80
2015,06,29,14,07,24.90
2015,06,29,14,08,24.90
2015,06,29,14,09,24.90
2015,06,29,14,10,24.90
2015,06,29,14,11,24.80
2015,06,29,14,12,24.80
2015,06,29,14,13,24.80
2015,06,29,14,14,24.70
2015,06,29,14,15,24.70
2015,06,29,14,16,24.70
2015,06,29,14,17,24.70
2015,06,29,14,18,24.90
2015,06,29,14,19,24.90
2015,06,29,14,20,25.00
2015,06,29,14,21,25.00
2015,06,29,14,22,25.00
2015,06,29,14,23,25.10
2015,06,29,14,24,25.10
2015,06,29,14,25,25.10
2015,06,29,14,26,25.20
2015,06,29,14,27,25.30
2015,06,29,14,28,25.30
2015,06,29,14,29,25.30
2015,06,29,14,30,25.20
2015,06,29,14,31,25.20
2015,06,29,14,32,25.20
2015,06,29,14,33,25.30
2015,06,29,14,34,25.20
2015,06,29,14,35,25.20
2015,06,29,14,36,25.20
2015,06,29,14,37,25.10
2015,06,29,14,38,25.10
2015,06,29,14,39,25.20
2015,06,29,14,40,25.30
2015,06,29,14,41,25.30
2015,06,29,14,42,25.30
2015,06,29,14,43,25.30
2015,06,29,14,44,25.30
2015,06,29,14,45,25.30
2015,06,29,14,46,25.30
2015,06,29,14,47,25.30
2015,06,29,14,48,25.30
2015,06,29,14,49,25.40
2015,06,29,14,50,25.40
2015,06,29,14,51,25.50
2015,06,29,14,52,25.60
2015,06,29,14,53,25.70
2015,06,29,14,54,25.80
2015,06,29,14,55,25.90
2015,06,29,14,56,26.00
2015,06,29,14,57,26.10
2015,06,29,14,58,26.20
2015,06,29,14,59,26.30
2015,06,29,15,00,26.40
2015,06,29,15,01,26.60
2015,06,29,15,02,26.60
2015,06,29,15,03,26.70
2015,06,29,15,04,26.70
2015,06,29,15,05,26.70
2015,06,29,15,06,26.70
2015,06,29,15,07,26.70
2015,06,29,15,08,26.60
2015,06,29,15,09,26.60
2015,06,29,15,10,26.60
2015,06,29,15,11,26.60
2015,06,29,15,12,26.50
2015,06,29,15,13,26.40
2015,06,29,15,14,26.20
2015,06,29,15,15,26.10
2015,06,29,15,16,26.00
2015,06,29,15,17,26.00
2015,06,29,15,18,26.00
2015,06,29,15,19,26.00
2015,06,29,15,20,26.10
2015,06,29,15,21,26.10
2015,06,29,15,22,26.20
2015,06,29,15,23,26.30
2015,06,29,15,24,26.30
2015,06,29,15,25,26.40
2015,06,29,15,26,26.40
2015,06,29,15,27,26.40
2015,06,29,15,28,26.30
2015,06,29,15,29,26.30
2015,06,29,15,30,26.30
2015,06,29,15,31,26.40
2015,06,29,15,32,26.40
2015,06,29,15,33,26.40
2015,06,29,15,34,26.40
2015,06,29,15,35,26.40
2015,06,29,15,36,26.40
2015,06,29,15,37,26.50
2015,06,29,15,38,26.60
2015,06,29,15,39,26.50
2015,06,29,15,40,26.40
2015,06,29,15,41,26.30
2015,06,29,15,42,26.30
2015,06,29,15,43,26.20
2015,06,29,15,44,26.20
2015,06,29,15,45,26.20
2015,06,29,15,46,26.10
2015,06,29,15,47,26.00
2015,06,29,15,48,26.00
2015,06,29,15,49,26.00
2015,06,29,15,50,26.10
2015,06,29,15,51,26.00
2015,06,29,15,52,26.00
2015,06,29,15,53,26.10
2015,06,29,15,54,26.00
2015,06,29,15,55,25.90
2015,06,29,15,56,25.80
2015,06,29,15,57,25.70
2015,06,29,15,58,25.60
2015,06,29,15,59,25.60
2015,06,29,16,00,25.50
2015,06,29,16,01,25.50
2015,06,29,16,02,25.50
2015,06,29,16,03,25.50
2015,06,29,16,04,25.50
2015,06,29,16,05,25.60
2015,06,29,16,06,25.80
2015,06,29,16,07,25.80
2015,06,29,16,08,25.90
2015,06,29,16,09,26.00
2015,06,29,16,10,26.00
2015,06,29,16,11,26.00
2015,06,29,16,12,26.00
2015,06,29,16,13,25.90
2015,06,29,16,14,25.90
2015,06,29,16,15,26.00
2015,06,29,16,16,26.00
2015,06,29,16,17,26.00
2015,06,29,16,18,26.00
2015,06,29,16,19,26.00
2015,06,29,16,20,26.10
2015,06,29,16,21,26.20
2015,06,29,16,22,26.20
2015,06,29,16,23,26.30
2015,06,29,16,24,26.40
2015,06,29,16,25,26.50
2015,06,29,16,26,26.60
2015,06,29,16,27,26.60
2015,06,29,16,28,26.70
2015,06,29,16,29,26.70
2015,06,29,16,30,26.60
2015,06,29,16,31,26.60
2015,06,29,16,32,26.60
2015,06,29,16,33,26.60
2015,06,29,16,34,26.50
2015,06,29,16,35,26.40
2015,06,29,16,36,26.40
2015,06,29,16,37,26.30
2015,06,29,16,38,26.30
2015,06,29,16,39,26.20
2015,06,29,16,40,26.20
2015,06,29,16,41,26.20
2015,06,29,16,42,26.30
2015,06,29,16,43,26.30
2015,06,29,16,44,26.30
2015,06,29,16,45,26.30
2015,06,29,16,46,26.20
2015,06,29,16,47,26.20
2015,06,29,16,48,26.20
2015,06,29,16,49,26.20
2015,06,29,16,50,26.30
2015,06,29,16,51,26.20
2015,06,29,16,52,26.10
2015,06,29,16,53,26.00
2015,06,29,16,54,26.10
2015,06,29,16,55,26.00
2015,06,29,16,56,25.90
2015,06,29,16,57,25.90
2015,06,29,16,58,25.90
2015,06,29,16,59,25.70
2015,06,29,17,00,25.60
2015,06,29,17,01,25.60
2015,06,29,17,02,25.60
2015,06,29,17,03,25.50
2015,06,29,17,04,25.50
2015,06,29,17,05,25.50
2015,06,29,17,06,25.50
2015,06,29,17,07,25.50
2015,06,29,17,08,25.50
2015,06,29,17,09,25.50
2015,06,29,17,10,25.50
2015,06,29,17,11,25.60
2015,06,29,17,12,25.60
2015,06,29,17,13,25.60
2015,06,29,17,14,25.60
2015,06,29,17,15,25.70
2015,06,29,17,16,25.70
2015,06,29,17,17,25.60
2015,06,29,17,18,25.60
2015,06,29,17,19,25.60